metlocid,date_time,avg_rh,std_rh,min_rh,max_rh,n_rh,n_comments
BRHM,1/1/95,67.78251854,15.75056308,22.77,99.99,540,10
BRHM,2/1/95,60.39650296,22.82885031,19.79,99.99,672,4
BRHM,3/1/95,82.62573927,11.54477289,38.12,97.51,744,0
BRHM,4/1/95,81.1296389,15.69749558,32.66,97.11,720,0
BRHM,5/1/95,76.22948912,17.50705084,32.47,93.24,744,0
BRHM,6/1/95,68.07508334,20.65998412,27.62,91.81,720,0
BRHM,7/1/95,69.87198914,16.7464711,27.33,93.38,744,0
BRHM,8/1/95,56.14554033,21.83570051,27.22,90.02,222,30
BRHM,11/1/95,,,,,0,699
BRHM,12/1/95,,,,,0,2976
BRHM,1/1/96,,,,,0,2976
BRHM,2/1/96,,,,,0,2784
BRHM,3/1/96,,,,,0,2976
BRHM,4/1/96,,,,,0,1823
BRHM,11/1/96,55.30760043,21.13081437,21.6,99.99,1667,6
BRHM,12/1/96,54.08018146,17.15167721,20.6,99.8,2976,0
BRHM,1/1/97,64.06932835,18.31455407,20.2,99.99,2948,34
BRHM,2/1/97,58.15598591,17.71687257,22.68,95.53,2688,0
BRHM,3/1/97,72.5675297,18.17951828,27.12,96,2947,0
BRHM,4/1/97,73.98090281,14.99485897,27.22,95.45,2880,0
BRHM,5/1/97,61.18205978,21.2334694,24.91,92.43,2976,0
BRHM,6/1/97,62.04266321,23.38984732,26.23,92.95,2880,0
BRHM,7/1/97,67.75068215,15.68291284,32.12,92.9,2976,0
BRHM,8/1/97,68.22806454,14.56865618,31.38,91.41,2976,0
BRHM,9/1/97,65.75543793,18.54055997,26.52,99.99,2786,0
BRHM,10/1/97,62.52162296,21.89148962,23.78,97.26,2976,0
BRHM,11/1/97,53.31148759,22.36375262,19.9,99.99,2877,108
BRHM,12/1/97,68.67229502,18.14982013,19.9,99.99,2976,16
BRHM,1/1/98,68.63205714,15.08974712,22.55,96.51,2975,0
BRHM,2/1/98,64.07925956,24.07848804,22,99.99,2688,118
BRHM,3/1/98,69.03661625,19.5807506,26.47,98.17,2976,0
BRHM,4/1/98,68.60725697,18.49016428,25.14,92.98,2880,0
BRHM,5/1/98,72.94607859,19.82792217,24.67,95.58,2976,0
BRHM,6/1/98,65.18106942,24.88154513,27.47,99.56,2880,0
BRHM,7/1/98,67.01464712,19.80223312,28.34,94.79,2976,0
BRHM,8/1/98,68.84077962,16.46913226,26.12,86.12,2976,0
BRHM,9/1/98,75.33386809,9.272526119,26.09,97.53,2880,0
BRHM,10/1/98,62.7091767,22.46293664,24.12,99.99,2976,1
BRHM,11/1/98,49.2980382,17.52074695,22.99,92.52,2880,0
BRHM,12/1/98,56.09737567,22.53944968,18.3,99.99,2976,5
BRHM,1/1/99,62.18207663,20.05369663,20.1,99.91,2976,0
BRHM,2/1/99,62.20917789,20.04112886,20.9,96.04,2688,0
BRHM,3/1/99,71.26392132,14.73439764,31.84,95.95,2976,0
BRHM,4/1/99,78.9205903,11.18960795,36.88,90.54,2880,0
BRHM,5/1/99,64.4435013,17.04998198,30.39,95.09,2976,0
BRHM,6/1/99,73.80319098,20.4537098,27.72,96.14,2880,0
BRHM,7/1/99,65.26242271,22.1300932,26.39,98.41,2976,0
BRHM,8/1/99,67.12047708,16.84354333,28.79,92.24,2976,0
BRHM,9/1/99,75.5556181,19.29583487,25.63,99.99,2880,1
BRHM,10/1/99,51.38329295,21.48245573,23.26,96.16,2976,0
BRHM,11/1/99,56.40444786,22.01010719,20.3,99.99,2880,49
BRHM,12/1/99,51.88480851,18.83002213,20.8,99.99,2976,6
BRHM,1/1/00,53.74898184,20.1355019,20.3,96.08,2976,0
BRHM,2/1/00,51.02116737,20.72540488,22.97,97.19,2784,0
BRHM,3/1/00,69.58539987,24.23082107,24.62,99.99,2976,16
BRHM,4/1/00,80.67220825,17.44496464,24.34,99.99,2880,109
BRHM,5/1/00,77.99601813,18.51400259,25.9,99.99,2976,1
BRHM,6/1/00,70.61884724,18.35744967,23.34,98.05,2880,0
BRHM,7/1/00,56.40354839,22.66275062,24.6,96.38,2976,0
BRHM,8/1/00,61.2302251,21.44075916,26.54,97,2976,0
BRHM,9/1/00,55.26472573,20.72468399,26.23,97.33,2880,0
BRHM,10/1/00,60.57558133,18.86583025,25.94,97.55,2976,0
BRHM,11/1/00,56.339149,24.02761271,12.99,99.28,2879,0
BRHM,12/1/00,64.64146166,16.63864172,19.32,94.67,2976,0
BRHM,1/1/01,67.39460346,19.16788157,11.6,99.99,2976,40
BRHM,2/1/01,59.31257061,22.38007237,9.9,99.99,2688,62
BRHM,3/1/01,75.38743597,21.69690426,11.81,99.99,2976,287
BRHM,4/1/01,81.67747891,23.81524584,15.18,99.99,2880,320
BRHM,5/1/01,70.04463031,29.89007328,9.4,99.99,2976,165
BRHM,6/1/01,73.02978807,24.95175263,17.55,99.99,2880,88
BRHM,7/1/01,71.6298521,26.63739225,15.25,99.99,2976,51
BRHM,8/1/01,83.82428767,14.1818674,18.19,99.99,2976,3
BRHM,9/1/01,80.43809368,19.98146832,20.75,99.99,2880,64
BRHM,10/1/01,55.74648524,23.49081781,11.96,99.99,2976,34
BRHM,11/1/01,54.31932984,17.17618912,12.74,97.2,2880,0
BRHM,12/1/01,53.43945868,18.06573678,9.6,94.49,2974,2
BRHM,1/1/02,62.5030713,23.53791052,10.8,99.99,2976,47
BRHM,2/1/02,58.91929314,22.91844824,12.37,98.93,2688,0
BRHM,3/1/02,65.38604495,25.6869868,13.42,99.99,2976,158
BRHM,4/1/02,75.26215268,26.09408201,24.64,99.99,2880,131
BRHM,5/1/02,75.48663281,24.85467196,13.63,99.99,2976,355
BRHM,6/1/02,79.30304864,23.71252505,9.84,99.99,2880,72
BRHM,7/1/02,66.18634407,26.90070503,11.02,99.99,2976,5
BRHM,8/1/02,72.90244288,22.2949365,24.15,99.99,2976,72
BRHM,9/1/02,83.36273945,20.23505917,19.01,99.99,2880,250
BRHM,10/1/02,80.5875603,18.89626841,22.62,99.99,2976,281
BRHM,11/1/02,71.35213198,20.20947798,13.63,99.99,2880,14
BRHM,12/1/02,66.02458662,20.5419153,11.97,99.99,2976,107
BRHM,1/1/03,74.01243274,17.54699551,18.4,99.99,2976,83
BRHM,2/1/03,75.31416647,18.13186317,25.1,99.99,2688,229
BRHM,3/1/03,79.0209371,22.05027748,26.05,99.99,2976,578
BRHM,4/1/03,91.1498018,13.99901373,32.74,99.99,2880,456
BRHM,5/1/03,65.23643466,30.55527355,13.01,99.99,2976,126
BRHM,6/1/03,86.46587794,20.58138414,18.05,99.99,2880,731
BRHM,7/1/03,69.15259397,28.21509637,15.9,99.99,2976,106
BRHM,8/1/03,80.25052744,21.45111998,13.25,99.99,2976,125
BRHM,9/1/03,80.28026364,24.81921284,13,99.99,2880,347
BRHM,10/1/03,60.4201981,25.71242808,16.08,99.99,2976,231
BRHM,11/1/03,63.64293751,17.2562218,20,99.99,2880,2
BRHM,12/1/03,61.67500336,21.59063671,11.8,99.99,2976,36
BRHM,1/1/04,71.53595772,16.19573173,28.04,99.99,2976,62
BRHM,2/1/04,67.14661283,20.81829765,15.66,99.98,2784,111
BRHM,3/1/04,85.72561523,14.96183884,35.61,99.98,2976,616
BRHM,4/1/04,85.74490655,18.5856575,30.66,99.98,2880,512
BRHM,5/1/04,76.37910292,24.11822049,25.09,99.95,2976,262
BRHM,6/1/04,68.59294803,31.97740565,10.82,99.97,2880,210
BRHM,7/1/04,73.73096776,25.82749676,8.59,99.9,2976,10
BRHM,8/1/04,62.24564524,32.89876124,7.44,99.98,2976,82
BRHM,9/1/04,85.90215287,20.51840044,12.8,99.98,2880,285
BRHM,10/1/04,66.16123658,21.79933836,15.75,99.95,2976,30
BRHM,11/1/04,56.64779165,22.84981979,12.14,99.15,2880,0
BRHM,12/1/04,65.75253021,18.45271714,13.06,99.9,2976,13
BRHM,1/1/05,70.55943197,14.81099449,20.08,99.9,2975,23
BRHM,2/1/05,66.20553578,23.76186106,15.33,99.97,2688,93
BRHM,3/1/05,77.23277896,18.16694383,23.08,99.98,2976,143
BRHM,4/1/05,88.66087514,14.79826944,30.32,99.98,2880,355
BRHM,5/1/05,78.73348141,23.98013481,19.55,99.98,2976,387
BRHM,6/1/05,75.58072923,24.82775772,15.95,99.98,2880,197
BRHM,7/1/05,81.49458683,21.92550392,15.22,99.98,2976,147
BRHM,8/1/05,75.85717744,23.93783231,15.77,99.97,2976,12
BRHM,9/1/05,65.77955908,25.39731613,9.07,99.9,2880,48
BRHM,10/1/05,59.41618618,27.44386859,9.59,99.9,2976,27
BRHM,11/1/05,57.15583332,21.55878256,10.58,99.9,2880,5
BRHM,12/1/05,64.72241344,20.26211062,12.23,97.22,2975,1
BRHM,1/1/06,70.8563298,17.79895177,33.14,99.9,1098,106
BRHM,5/1/06,75.32059444,19.53485579,25.22,99.9,286,5
BRHM,6/1/06,74.56664097,24.2368522,18.87,99.98,2837,225
BRHM,7/1/06,75.04459015,22.02302816,15.28,99.9,2976,7
BRHM,8/1/06,77.53541006,26.42782241,24.36,99.97,2976,191
BRHM,9/1/06,77.93146892,24.21587887,26.04,99.97,2880,272
BRHM,10/1/06,62.98612227,13.0378858,17.5,90.6,2976,0
BRHM,11/1/06,57.77576389,15.90145703,17.4,91.6,2880,0
BRHM,12/1/06,57.97153897,18.3757992,14.1,93.8,2976,0
BRHM,1/1/07,54.34235059,15.81140639,13.9,89.21,1791,0
BRHM,9/1/07,56.61318816,27.92507428,12.35,99.99,1929,0
BRHM,10/1/07,66.17609874,27.05634185,7.45,99.99,2976,0
BRHM,11/1/07,65.28157641,17.11511406,12.88,99.99,2880,0
BRHM,12/1/07,58.33684816,21.3848525,11.95,95.45,2976,0
BRHM,1/1/08,63.7023033,17.37032377,14.48,99.99,2974,4
BRHM,2/1/08,67.1520905,18.8382901,17.24,98.57,2784,0
BRHM,3/1/08,77.21885733,22.44003627,13.18,99.99,2976,230
BRHM,4/1/08,79.4228749,25.39256506,14.87,99.99,2880,122
BRHM,5/1/08,72.36431115,24.34154044,18.03,99.99,2976,38
BRHM,6/1/08,77.21932979,24.14545614,18.83,99.99,2880,122
BRHM,7/1/08,74.88865591,24.90758294,13.88,99.99,2976,4
BRHM,8/1/08,71.04593077,23.60304834,10.59,99.99,2976,2
BRHM,9/1/08,55.79603122,29.46537442,12.66,99.99,2880,60
BRHM,10/1/08,73.33212704,19.58834029,15.14,99.99,2976,47
BRHM,11/1/08,55.49960411,22.49966601,9.24,99.99,2880,33
BRHM,12/1/08,54.47885083,20.9382427,7.9,99.99,2976,24
BRHM,1/1/09,63.8060719,19.86624189,12.18,99.99,2976,3
BRHM,2/1/09,68.94074773,17.29687179,17.72,99.99,2688,23
BRHM,3/1/09,80.82097766,19.14716304,18.78,100,2976,217
BRHM,4/1/09,78.88275659,23.66238901,20.15,100,2880,473
BRHM,5/1/09,79.34474127,19.46246934,20.07,100,2976,44
BRHM,6/1/09,68.60053815,25.38199302,15.4,100,2880,87
BRHM,7/1/09,70.56471767,26.95216097,12.81,99.99,2976,90
BRHM,8/1/09,73.9143179,24.74974189,18.81,99.99,2976,62
BRHM,9/1/09,59.94063891,30.2078383,9.5,99.99,2880,8
BRHM,10/1/09,72.93701951,19.05615211,16.9,99.99,2976,61
BRHM,11/1/09,59.30468745,20.97936058,12.87,99.99,2880,36
BRHM,12/1/09,66.39431599,16.67262085,19.5,100,2975,9
BRHM,1/1/10,69.58914653,15.20481524,12.7,100,2976,32
BRHM,2/1/10,70.02537202,20.01740019,12.1,100,2688,37
BRHM,3/1/10,83.63847446,13.56662547,38.5,100,2976,369
BRHM,4/1/10,83.07499998,20.09604674,22.4,100,2880,177
BRHM,5/1/10,78.43531581,21.31579754,28.5,100,2976,104
BRHM,6/1/10,79.49319442,19.50852959,28.3,100,2880,62
BRHM,7/1/10,68.96743956,24.6755119,19.8,100,2976,16
BRHM,8/1/10,74.8743952,28.12029725,8.5,100,2976,62
BRHM,9/1/10,84.62003472,17.86543574,26.8,100,2880,57
BRHM,10/1/10,65.88387091,24.79776608,12.2,100,2976,159
BRHM,11/1/10,43.37993293,22.40361145,8.7,100,1789,14
BRHM,1/1/12,53.95852933,13.35909536,23.58,78.81,510,0
BRHM,2/1/12,61.3257579,22.94531025,14.72,100,2784,45
BRHM,3/1/12,71.07111222,25.17058471,15.58,100,2976,327
BRHM,4/1/12,80.75435065,24.033793,21.84,100,2880,561
BRHM,5/1/12,64.85358534,33.03145574,10.73,100,2976,417
BRHM,6/1/12,74.36213537,28.24703719,12.27,100,2880,164
BRHM,7/1/12,87.82867942,15.00759803,30.64,100,2976,428
BRHM,8/1/12,74.04346432,29.349575,9.83,100,2976,145
BRHM,9/1/12,76.03050658,23.37614313,26.37,100,2645,165
BRHM,10/1/12,67.60765118,22.27490154,18.61,100,2976,142
BRHM,11/1/12,60.25036138,18.11602511,14.62,100,2878,42
BRHM,12/1/12,68.30099126,17.84711011,20.49,100,2976,74
BRHM,1/1/13,68.29290655,20.76162308,14.45,100,2976,29
BRHM,2/1/13,70.74414429,20.41763214,18.9,100,2688,87
BRHM,3/1/13,76.7401176,20.437344,25.05,100,2976,249
BRHM,4/1/13,85.04224647,17.20723292,16.06,100,2880,135
BRHM,5/1/13,84.00389118,20.61894063,28.96,100,2976,554
BRHM,6/1/13,81.46519454,20.39895075,27.93,100,2880,471
BRHM,7/1/13,84.4942742,17.0504339,29.48,100,2976,75
BRHM,8/1/13,71.66343077,25.28900704,13.29,100,2976,80
BRHM,9/1/13,71.34315622,27.32733212,12.57,100,2880,347
BRHM,10/1/13,79.43368955,20.79762485,26.88,100,2976,515
BRHM,11/1/13,59.04123999,21.78802737,14.559102,100,2880,160
BRHM,12/1/13,62.38411343,19.66629929,11.34855,100,2976,36
BRHM,1/1/14,60.62077226,20.43079145,11.647001,100,2976,11
BRHM,2/1/14,61.90682639,25.03967112,9.564218,100,2688,17
BRHM,3/1/14,75.48214329,25.66447784,10.591596,100,2976,290
BRHM,4/1/14,72.86181876,30.5464003,8.520928,100,2880,400
BRHM,5/1/14,83.90943313,25.17000893,16.359634,100,2976,814
BRHM,6/1/14,79.0632081,24.04448491,19.55721,100,2880,192
BRHM,7/1/14,83.46547408,16.47992393,23.340054,100,2976,79
BRHM,8/1/14,76.95078654,25.99806623,21.067905,100,2976,489
BRHM,9/1/14,69.72425149,28.80720971,11.938867,100,2880,485
BRHM,10/1/14,72.19306757,24.26375246,13.976952,100,2976,438
BRHM,11/1/14,69.72260079,18.72591759,19.145256,100,2879,55
BRHM,12/1/14,68.96170503,15.07250677,19.493704,100,2976,8
BRHM,1/1/15,66.17867576,19.66050576,13.720043,98.98005,2976,0
BRHM,2/1/15,65.17762666,23.29906602,13.875306,100,2688,55
BRHM,3/1/15,78.96339451,20.07010979,17.856901,100,2976,204
BRHM,4/1/15,88.44745928,17.23076714,30.391628,100,2880,459
BRHM,5/1/15,85.24194305,18.73316967,20.267986,100,2976,156
BRHM,6/1/15,70.83658157,25.8264195,12.466257,99.38927,2880,0
BRHM,7/1/15,76.95645281,21.66800052,16.668985,100,2976,113
BRHM,8/1/15,70.00585631,27.62584568,12.544875,100,2976,65
BRHM,9/1/15,70.53330762,25.97815339,8.809876,100,2880,51
BRHM,10/1/15,71.07501373,23.55126007,11.904504,100,2976,137
BRHM,11/1/15,55.26238337,21.04539478,13.182901,99.90375,2877,0
BRHM,12/1/15,63.14246318,22.46198427,7.7720513,100,2976,0
BRHM,1/1/16,66.3384302,20.70460589,10.115491,100,2976,0
BRHM,2/1/16,62.34906569,23.48648529,10.921395,100,2784,0
BRHM,3/1/16,75.02152653,20.77441074,25.800907,100,2976,0
BRHM,4/1/16,92.93827075,5.617617949,58.71026,100,1186,0
BRHM,5/1/16,71.3113235,31.96479921,7.7039123,100,2308,0
BRHM,6/1/16,85.80593672,17.68686336,20.789883,100,2880,0
BRHM,7/1/16,84.62993863,17.26265569,16.540874,100,2818,0
BRHM,8/1/16,82.20518989,21.32850225,9.366074,100,2942,0
BRHM,9/1/16,80.49943985,22.2207987,17.39083,100,2880,0
BRHM,10/1/16,69.35726991,21.68732801,16.701334,100,2976,0
BRHM,11/1/16,60.67515247,25.00551073,6.341712,100,2880,0
BRHM,12/1/16,57.25929079,18.90948158,11.41,100,2955,0
BRHM,1/1/17,65.44341396,16.60309287,13.6,100,2976,9
BRHM,2/1/17,56.0437574,20.14637194,11.16,98.36,2688,0
BRHM,3/1/17,84.15812497,18.10614677,30.26,100,2976,217
BRHM,4/1/17,65.98710762,21.99637621,21,100,2880,3
BRHM,5/1/17,70.0378629,28.34853746,13.28,100,2976,63
BRHM,6/1/17,74.81794444,22.95390906,17.17,100,2880,98
BRHM,7/1/17,65.97252008,27.0330293,11.05,100,2976,2
BRHM,8/1/17,72.17526546,24.56538596,8.51,100,2976,4
BRHM,9/1/17,65.92437341,22.96956104,13.289789,100,2880,2
BRHM,10/1/17,69.51920053,23.89953862,18.113838,100,2976,90
BRHM,11/1/17,65.93085844,20.97596307,11.605266,100,2877,69
BRHM,12/1/17,66.51014452,16.58321283,14.5,98,2976,0
BRHM,1/1/18,64.82603155,17.64498674,17.21,100,2976,34
BRHM,2/1/18,63.02346723,19.89937942,13.81,100,2688,16
BRHM,3/1/18,78.3476545,19.67232016,29,100,2976,199
BRHM,4/1/18,69.66659365,27.84830039,11.28,100,2880,32
BRHM,5/1/18,81.95686154,16.25341898,23.98,100,2976,33
BRHM,6/1/18,69.87660763,26.29417375,23.72,100,2880,3
BRHM,7/1/18,66.26235884,26.40188464,14.47,100,2976,7
BRHM,8/1/18,77.80039982,23.34099245,11,100,2976,38
BRHM,9/1/18,69.4598924,25.05546654,12.5,100,2880,6
BRHM,10/1/18,67.11724463,25.25364575,15.32,100,2976,44
BRHM,11/1/18,58.75083332,22.11233274,11.86,99.78,2880,0
BRHM,12/1/18,55.45142325,20.67564514,14.01,100,2972,13
BRHM,1/1/19,72.42938507,16.15707151,12.8,100,2976,6
BRHM,2/1/19,68.93395084,22.4008193,11.29,100,2688,61
BRHM,3/1/19,79.97361891,19.81712938,21.46,100,2976,429
BRHM,4/1/19,74.94128818,24.49696597,26.53,100,2880,228
BRHM,5/1/19,80.08471103,26.64409797,24.82,100,2976,682
BRHM,6/1/19,71.85285068,24.43668805,19.93,100,2880,282
BRHM,7/1/19,75.53560149,29.68060198,12.96,100,2976,444
BRHM,8/1/19,74.07747992,27.39758367,13.16,100,2976,162
BRHM,9/1/19,66.47475006,28.47758156,11.08,100,2880,76
BRHM,10/1/19,63.61027894,21.58521503,14.22,100,2976,42
BRHM,11/1/19,64.98748263,20.32476765,13.82,100,2880,38
BRHM,12/1/19,67.42503536,20.51887609,13.07,100,2969,259
BRHM,1/1/20,72.04628693,17.84161992,17.5,100,2976,2976
BRHM,2/1/20,73.39659126,20.61048154,17.31,100,2784,2784
BRHM,3/1/20,77.77000336,20.93757479,25.11,100,2976,2976
BRHM,4/1/20,75.02193756,25.1147682,24.96,100,2880,2880
BRHM,5/1/20,75.27407602,23.33001255,20.12,100,2976,2976
BRHM,6/1/20,71.47124308,27.82683249,13.48,100,2880,2880
BRHM,7/1/20,74.69811493,27.67034932,14.58,100,2976,2976
BRHM,8/1/20,83.91742271,20.17417419,26.89,100,2976,2976
BRHM,9/1/20,82.16142017,18.86747068,25.69,100,2880,2880
BRHM,10/1/20,60.96184138,25.55643456,14.63,100,2976,2976
BRHM,11/1/20,57.73213539,20.14050037,14.67,100,2880,2880
BRHM,12/1/20,57.24084006,18.40327932,11.49,100,2976,2976
BRHM,1/1/21,63.24652888,20.28540122,9.4,100,2976,2976
BRHM,2/1/21,69.96738463,24.34103767,9.88,100,2688,2688
BRHM,3/1/21,84.87663986,19.42869064,19.98,100,2976,2976
BRHM,4/1/21,87.84193405,13.50931516,34.15,100,2880,2880
BRHM,5/1/21,79.51634748,22.27274884,25.08,100,2976,2976
BRHM,6/1/21,71.02370834,27.49892946,17.16,100,2880,2880
BRHM,7/1/21,77.02281924,23.17789347,22.66,100,2976,2976
BRHM,8/1/21,74.8880477,25.93704316,11.67,100,2976,2976
BRHM,9/1/21,68.17401384,28.62939603,14.25,100,2880,2880
BRHM,10/1/21,54.40754371,26.58319497,11.28,100,2976,2976
BRHM,11/1/21,58.78427432,19.50675313,12.89,100,2880,2880
BRHM,12/1/21,49.69688174,19.1086211,12.06,94.79,2976,2976
BRHM,1/1/22,64.12896765,14.99293122,14.59,95.51,1792,1792